Location: *
(31.2983°S, 151.4094°E)
Time: 06:18:45
(UTC+00:00)

Cosmos 2297 - Pass Details

Date: 25 November 2019
Orbit: 835 x 860 km, 71.0° (Epoch: 08 December)

Event Time Altitude Azimuth Distance (km) Brightness Sun altitude
Exits shadow 13:33:30 27° 158° (SSE) 1,555 5.4 -37.9°
Drops below altitude 10° 13:36:01 10° 159° (SSE) 2,471 6.7 -37.9°
Sets 13:38:28 0° 159° (SSE) 3,411 7.7 -37.9°
